Home   Weather   Brasilia   Past weeks
Flag for Brazil

Past Weather in Brasilia, Distrito Federal, Brazil — Yesterday and Last 2 Weeks

Now
88 °F

Sunny.


Feels Like: 85 °F
Forecast: 90 / 65 °F
Wind: 6 mph from Northeast

Location: Brasilia Aeroporto

Current Time: Oct 14, 2019 at 1:07:40 pm

Latest Report: Oct 14, 2019 at 12:00 pm


Visibility: 10 mi

Pressure: 30.09 "Hg (26.62 "Hg at 1091m altitude)

Humidity: 24%

Dew Point: 46 °F

Location of BrasiliaLocation

Past Weather in Brasilia — Graph

°F

Brasilia Temperature Yesterday

Maximum temperature yesterday: 91 °F (at 1:00 pm)
Minimum temperature yesterday: 63 °F (at 3:00 am)
Average temperature yesterday: 79 °F

High & Low Weather Summary for the Past Weeks

 TemperatureHumidityPressure
High93 °F (Oct 3, 3:00 pm)94% (Oct 8, 5:05 am)30.15 "Hg (Oct 8, 5:05 am)
Low61 °F (Oct 14, 6:00 am)15% (Oct 13, 1:00 pm)29.95 "Hg (Sep 29, 4:00 pm)
Average78 °F54%30.05 "Hg
* Reported Sep 29 11:00 am — Oct 14 11:00 am, Brasilia. Weather by CustomWeather, © 2019

Note: Actual official high and low records may vary slightly from our data, if they occured in-between our weather recording intervals... More about our weather records

Advertising

Brasilia Weather History for the Previous 24 Hours

Scroll right to see more
 ConditionsComfort  
Time TempWeatherWind HumidityBarometerVisibility
11:00 am
Mon, Oct 14
86 °FSunny.8 mph29%30.09 "Hg10 mi
10:00 am84 °FSunny.10 mph31%30.09 "Hg10 mi
9:00 am79 °FSunny.13 mph34%30.12 "Hg10 mi
8:00 am77 °FSunny.8 mph36%30.09 "Hg10 mi
7:00 am68 °FSunny.No wind56%30.09 "Hg10 mi
6:00 am61 °FSunny.2 mph68%30.07 "Hg10 mi
5:00 am63 °FClear.No wind64%30.04 "Hg10 mi
4:00 am63 °FClear.2 mph68%30.04 "Hg10 mi
3:00 am64 °FClear.No wind64%30.04 "Hg10 mi
2:00 am66 °FClear.No wind60%30.04 "Hg10 mi
1:00 am68 °FClear.No wind53%30.04 "Hg10 mi
12:00 am73 °FPassing clouds.3 mph41%30.07 "HgN/A
11:00 pm
Sun, Oct 13
73 °FClear.2 mph38%30.09 "Hg10 mi
10:00 pm77 °FClear.2 mph36%30.07 "Hg10 mi
9:00 pm75 °FClear.2 mph39%30.07 "Hg10 mi
8:00 pm82 °FClear.9 mph26%30.04 "Hg10 mi
7:00 pm84 °FClear.8 mph25%30.01 "Hg10 mi
6:00 pm88 °FSunny.7 mph24%30.01 "Hg10 mi
5:00 pm90 °FPassing clouds.9 mph20%30.01 "HgN/A
4:00 pm91 °FScattered clouds.10 mph16%30.01 "HgN/A
3:00 pm91 °FScattered clouds.9 mph18%30.01 "HgN/A
2:00 pm91 °FScattered clouds.10 mph15%30.04 "HgN/A
1:00 pm91 °FScattered clouds.9 mph15%30.07 "HgN/A
Weather by CustomWeather, © 2019

See weather overview